Regional Weather Roundup
Issued by NWS

Home | Current Version | Previous Version | Graphics & Text | Print | Product List | Glossary On
Versions: 1 2 3 4 5 6 7 8 9 10 11 12 13 14 15 16 17 18 19 20 21 22 23 24 25 26 27 28 29 30 31 32 33 34 35 36 37 38 39 40 41 42 43 44 45 46 47 48 49 50
000
ASUS43 KDMX 251206
RWRIA

WEATHER ROUNDUP FOR IOWA
NATIONAL WEATHER SERVICE DES MOINES IA
700 AM CDT SAT MAR 25 2017

NOTE: "FAIR" INDICATES FEW OR NO CLOUDS BELOW 12,000 FEET WITH NO
SIGNIFICANT WEATHER AND/OR OBSTRUCTIONS TO VISIBILITY.

* - THESE STATIONS ARE NOT NWS STATIONS...THUS NOT UNDER NWS
QUALITY CONTROL.  THEY ALSO DO NOT REPORT WEATHER SUCH
AS PRECIPITATION OR FOG.

IAZ001>003-012>014-020>022-031>034-043>046-251300-
   NORTHWEST IOWA

CITY           SKY/WX    TMP DP  RH WIND       PRES   REMARKS
CARROLL *      LGT RAIN  39  39 100 NE17G30   29.98R WCI  30
CHEROKEE *     CLOUDY    37  37  99 NE14G23   30.04S FOG     WCI  28
LE MARS *      CLOUDY    37  37 100 N12G20    30.07S FOG     WCI  30
ORANGE CITY *  CLOUDY    36  36 100 NE7G20    30.06S FOG     WCI  30
SHELDON *      MIX PCPN  36  36 100 NE16G23   30.06S WCI  26
SIOUX CITY     CLOUDY    38  38 100 NE14      30.06R WCI  30
6HR MIN TEMP:  38; 6HR MAX TEMP:  40; 6HR PCP: TRACE;

SPENCER        CLOUDY    37  35  92 NE18      30.07R WCI  27
6HR MIN TEMP:  37; 6HR MAX TEMP:  39;

STORM LAKE *   FOG       36  36 100 NE23G33   30.01R VSB 1   WCI  24
$$

IAZ055>058-069>071-079>083-090>094-251300-
   SOUTHWEST IOWA

CITY           SKY/WX    TMP DP  RH WIND       PRES   REMARKS
ATLANTIC *     LGT RAIN  39  39 100 NE17G23   29.94R WCI  30
AUDUBON *      RAIN      39  37  93 NE14G20   29.97R WCI  31
CLARINDA *     CLOUDY    43  43 100 NE14      29.91R
COUNCIL BLFS * RAIN      39  39 100 N18       29.95R WCI  30
CRESTON *      HVY RAIN  41  41 100 NE20      29.90S
HARLAN  *      MIX PCPN  39  39 100 NE22G28   29.99R WCI  29
LAMONI         LGT RAIN  45  45 100 N17       29.85F FOG
6HR MIN TEMP:  45; 6HR MAX TEMP:  47; 6HR PCP:  0.18;

RED OAK *      LGT RAIN  41  41 100 N17G24    29.92R
SHENANDOAH *   CLOUDY    43  41  93 N15G21    29.91R
$$

IAZ047>049-059>061-072>074-084-251300-
   CENTRAL IOWA

CITY           SKY/WX    TMP DP  RH WIND       PRES   REMARKS
AMES           CLOUDY    39  39 100 NE12      29.97R WCI  32
6HR MIN TEMP:  39; 6HR MAX TEMP:  41; 6HR PCP:  0.06;

ANKENY *       RAIN      41  39  93 NE13      29.96R
BOONE *        CLOUDY    37  37 100 NE24      29.95R FOG     WCI  26
CHARITON *     LGT RAIN  45  45 100 NE17      29.86F
DES MOINES     RAIN      42  41  96 NE10      29.94R FOG
6HR MIN TEMP:  42; 6HR MAX TEMP:  44; 6HR PCP:  0.17;

GRINNELL*      CLOUDY    40  39  97 NE15G22   29.93R WCI  32
MARSHALLTOWN   LGT RAIN  38  38 100 NE17      29.95R FOG     WCI  28
6HR MIN TEMP:  38; 6HR MAX TEMP:  41; 6HR PCP:  0.01;

NEWTON *       CLOUDY    41  39  93 NE14G22   29.91S FOG
PELLA *        RAIN      43  42  97 NE9       29.91S
PERRY *        LGT RAIN  40  39  96 NE13      29.96S WCI  32
$$

IAZ004>006-015-016-023>025-035-036-251300-
   NORTH CENTRAL IOWA

CITY           SKY/WX    TMP DP  RH WIND       PRES   REMARKS
ALGONA *       CLOUDY    37  37 100 NE15G21   30.05R FOG     WCI  28
CLARION *      CLOUDY    37  37 100 NE23G32   30.01S WCI  26
ESTHERVILLE    CLOUDY    36  35  96 NE22      30.07R WCI  25
6HR MIN TEMP:  36; 6HR MAX TEMP:  37;

FORT DODGE *   CLOUDY    37  34  87 NE14G22   30.02S WCI  29
MASON CITY     CLOUDY    37  35  92 NE16      30.05S WCI  28
6HR MIN TEMP:  37; 6HR MAX TEMP:  39;

FOREST CITY *  CLOUDY    36  36 100 NE14G23   30.05R FOG     WCI  27
WEBSTER CITY * LGT RAIN  37  37 100 NE18G25   29.98R WCI  27
IOWA FALLS *   CLOUDY    38  37  94 NE17G23   30.00R WCI  29
$$

IAZ007>011-017>019-026>030-037>042-050>054-066-251300-
   NORTHEAST IOWA

CITY           SKY/WX    TMP DP  RH WIND       PRES   REMARKS
CEDAR RAPIDS   CLOUDY    40  40 100 NE17G25   29.93R FOG     WCI  31
6HR MIN TEMP:  40; 6HR MAX TEMP:  44; 6HR PCP:  0.01;

CHARLES CITY * CLOUDY    37  37 100 NE17G25   30.03S WCI  28
CLINTON *      CLOUDY    40  39  97 E23       29.96R WCI  30
DECORAH *      CLOUDY    36  34  93 NE13G23   30.04S WCI  27
MONTICELLO *   CLOUDY    39  37  93 NE15G25   29.97S WCI  31
OELWEIN *      CLOUDY    37  37 100 NE20G30   29.99R WCI  27
WATERLOO       CLOUDY    38  35  89 NE17      30.00R WCI  28
6HR MIN TEMP:  38; 6HR MAX TEMP:  40;

$$

IAZ064-065-067-068-078-251300-
   EAST CENTRAL IOWA

CITY           SKY/WX    TMP DP  RH WIND       PRES   REMARKS
DAVENPORT      CLOUDY    41  39  93 NE20G26   29.93S
6HR MIN TEMP:  41; 6HR MAX TEMP:  47; 6HR PCP:  0.05;

IOWA CITY      CLOUDY    43  39  86 NE15G28   29.94R
6HR MIN TEMP:  43; 6HR MAX TEMP:  49; 6HR PCP: TRACE;

MUSCATINE *    CLOUDY    45  41  87 NE13G21   29.92R
QUAD CITIES    LGT RAIN  43  40  89 NE17G25   29.92F
6HR MIN TEMP:  43; 6HR MAX TEMP:  48; 6HR PCP:  0.04;

$$

IAZ062-063-075>077-085>089-095>099-251300-
   SOUTHEAST IOWA

CITY           SKY/WX    TMP DP  RH WIND       PRES   REMARKS
BURLINGTON     LGT RAIN  45  50 100 NE18      29.84F
6HR MIN TEMP:  45; 6HR MAX TEMP:  55; 6HR PCP:  0.13;

FAIRFIELD *    CLOUDY    45  43  93 NE22      29.85F FOG
FORT MADISON * LGT RAIN  46  45  93 NE14G22   29.84F
KEOKUK *       CLOUDY    48  46  93 NE15G22   29.83R FOG
OSKALOOSA *    LGT RAIN  42  42  97 NE20      29.87S
OTTUMWA        LGT RAIN  44  44 100 NE20G25   29.85F FOG
6HR MIN TEMP:  44; 6HR MAX TEMP:  52; 6HR PCP:  0.11;

WASHINGTON *   LGT RAIN  43  43 100 NE17      29.90R
$$

ABBREVIATIONS USED IN REMARKS
   TC - TEMPERATURES IN CELSIUS
  WCI - WIND CHILL INDEX
   HX - HEAT INDEX
  VSB - VISIBILITY
$$





USA.gov is the U.S. government's official web portal to all federal, state and local government web resources and services.